NOAA 16 DEB, 41301

Orbit data source: Space-Track

NOAA 16 DEB, 41301 is space debris in SSO originally from a launch on Thu, 21 Sep 2000 UTC launched from the Air Force Western Test Range (AFWTR). Debris objects in space refer to the collection of defunct objects orbiting the Earth. Examples of debris include non-operational satellites, rocket bodies, and fragments generated from explosions, collisions, or faulty payload assembly.

Loading next visibility...
Identifier
41301, 2000-055HD
Orbit
SSO
Country
Flag of USUS
Related business
Manufacturer
Unknown
Mission
Spacecraft
Bus & Motor
Unknown
Mass
Unknown
Launch date (UTC)
2000-09-21 (26 years ago)
Launch vehicle
Unknown
Launch site
Air Force Western Test Range (AFWTR)
Object type
Payload
Rocket body
Debris
Shape & HBR
Unknown shape, 0.1 m
Radar Cross Section
Medium (>0.1 m² and <1 m²)

Expand to show TLE details & history
Last TLE update: 2 days ago

TLE from 2 days ago
0 NOAA 16 DEB
1 41301U 00055HD  26256.33795082  .00002387  00000-0  10038-2 0  9991
2 41301  98.7048 296.9227 0018109 279.8720  80.0416 14.26680826552282
Epoch: 2026-09-13T08:06Z
TLE epoch observation values (Epoch: 2026-09-13T08:06:38.950Z)
Latitude
-0.00002°
Longitude
-177.07363°
Altitude
803.544 km
Speed
7.453 km/s
True Right ascension
19h 47m 41s
True Declination
0° 00' 00"
Sunlit
Object was in full shadow at epoch
Visualization orbit readout
Latitude
Unknown
Longitude
Unknown
Altitude
Unknown
Speed
Unknown
Apparent Right ascension
Unknown
Apparent Declination
Unknown
Sunlit
N/A
Visualization observer readout
Local Sidereal Time
21:07:38
Azimuth
Unknown
Elevation
Unknown
Doppler factor
Unknown
Orbital elements
Apogee altitude
812.995 km
Perigee altitude
786.998 km
Semi-major axis
7,178.133 km
Eccentricity
0.00181
Inclination
98.7048°
RAAN
296.9227°
Arg. of periapsis
279.872°
True anomaly
80.24607°
Mean anomaly
80.0416°
Eccentric anomaly
80.14383°
Mean motion
3.56883 °/min
Orbital period
100.87 mins
BSTAR
0.0010038
Loading maneuver chart data...
Computing Atmospheric mass density...
Loading historical data...
Loading historical data...
Loading historical data...
Loading historical data...
Loading historical data...
Loading historical data...
Loading historical data...

Documentation

Showing up to 5 results
|